Regional Weather Roundup
Issued by NWS

Home | Current Version | Previous Version | Graphics & Text | Print | Product List | Glossary On
Versions: 1 2 3 4 5 6 7 8 9 10 11 12 13 14 15 16 17 18 19 20 21 22 23 24 25 26 27 28 29 30 31 32 33 34 35 36 37 38 39 40 41 42 43 44 45 46 47 48 49 50
999
ASUS45 KABQ 211701
RWRNM
NEW MEXICO REGIONAL WEATHER ROUNDUP
NATIONAL WEATHER SERVICE ALBUQUERQUE NM
1100 AM MDT THU MAY 21 2015

NOTE: "FAIR" MEANS FEW OR NO CLOUDS BELOW 12,000 FEET AGL WITH NO
       SIGNIFICANT WEATHER OR OBSTRUCTIONS TO VISION.

      THIS PRODUCT IS RELEASED AS TWO VERSIONS.  ONE VERSION NEAR
      THE TOP OF THE HOUR CONTAINING PRELIMINARY DATA FROM ALBUQUERQUE
      AND OTHER STATIONS.  A FINAL VERSION WITH ADDITIONAL DATA IS
      ISSUED ABOUT 10 MINUTES AFTER THE HOUR.

NMZ501-503-504-510>518-211800-
NORTHWEST PLATEAU/NORTHCENTRAL MOUNTAINS

CITY           SKY/WX    TMP DP  RH WIND       PRES   REMARKS
FARMINGTON     SUNNY     66  41  40 SE14G21   30.06F
SANTA FE       CLOUDY    53  41  63 SE18      30.22F
TAOS           PTSUNNY   55  37  50 W10       30.23F

$$
NMZ402-403-502-505>509-211800-
WESTCENTRAL MOUNTAINS/SOUTHWEST MOUNTAINS

CITY           SKY/WX    TMP DP  RH WIND       PRES   REMARKS
GALLUP         CLOUDY    63  30  28 SE10      30.09F
GRANTS         PTSUNNY   60  42  51 SE20G25   30.16F
SILVER CITY      N/A     68  45  42 SE12G23   30.12F

$$
NMZ407-409-411-412-211800-
SOUTHERN DESERTS

CITY           SKY/WX    TMP DP  RH WIND       PRES   REMARKS
LORDSBURG      FAIR      72  46  40 E18G24    30.00F
DEMING         SUNNY     73  51  46 SE10G22   30.05F
HOLLOMAN AFB   CLOUDY    67  52  58 W6        30.08F
ALAMOGORDO     PTSUNNY   68  50  52 NW8       30.10S
T OR C         MOSUNNY   69  50  50 E9G16     30.09F

$$
NMZ519>523-211800-
CENTRAL VALLEYS/CENTRAL HIGHLANDS

CITY           SKY/WX    TMP DP  RH WIND       PRES   REMARKS
ALBUQUERQUE    CLOUDY    62  44  51 E25       30.16F
DOUBLE EAGLE   PTSUNNY   61  45  55 E10G16    30.18F
MORIARTY ARPT  CLOUDY    50  43  77 SE12      30.26S
CLINES CORNERS CLOUDY    44  43  96 E16       30.24F FOG
BELEN          CLOUDY    65  44  46 SE10      30.14F
SOCORRO        NOT AVBL

$$
NMZ524>526-539-540-211800-
SOUTHCENTRAL MOUNTAINS

CITY           SKY/WX    TMP DP  RH WIND       PRES   REMARKS
RUIDOSO        NOT AVBL

$$
NMZ527>531-211800-
NORTHEAST HIGHLANDS/NORTHEAST PLAINS

CITY           SKY/WX    TMP DP  RH WIND       PRES   REMARKS
LAS VEGAS      CLOUDY    44  42  93 S6        30.28F FOG
RATON          CLOUDY    47  42  83 S14       30.26S
CLAYTON        CLOUDY    44  42  93 S7        30.29S

$$
NMZ532>537-211800-
EASTCENTRAL PLAINS

CITY           SKY/WX    TMP DP  RH WIND       PRES   REMARKS
TUCUMCARI      CLOUDY    48  44  86 SE12      30.28S
CANNON AFB     NOT AVBL
CLOVIS AIRPORT CLOUDY    45  41  87 E14       30.29F

$$
NMZ028-029-538-211800-
SOUTHEAST PLAINS

CITY           SKY/WX    TMP DP  RH WIND       PRES   REMARKS
ROSWELL        LGT RAIN  52  50  93 E9        30.25S FOG
ARTESIA        CLOUDY    54  54 100 E10       30.25R
CARLSBAD       CLOUDY    54  51  90 E9        30.22S FOG
HOBBS          CLOUDY    48  48 100 NE14      30.25F


$$



USA.gov is the U.S. government's official web portal to all federal, state and local government web resources and services.